Location: Unspecified
(0.0000°N, 0.0000°E)
Time: 06:57:20
(UTC+00:00)

SRMSAT - Visible Passes

Search period start: 16 September 2019 00:00
Search period end: 26 September 2019 00:00
Orbit: 848 x 866 km, 20.0° (Epoch: 15 September)

Date Brightness Start Highest point End Pass type
(mag) Time Alt. Az. Time Alt. Az. Time Alt. Az.
16 Sep ? 03:40:58 30° SSE 03:40:58 30° SSE 03:44:16 10° SE visible
16 Sep ? 05:23:51 10° WSW 05:28:04 20° SSW 05:32:18 10° SSE visible
16 Sep ? 18:14:00 10° NW 18:16:41 13° N 18:19:21 10° NNE visible
17 Sep ? 03:29:00 21° SE 03:29:00 21° SE 03:31:11 10° SE visible
17 Sep ? 05:11:17 10° SW 05:15:12 18° SSW 05:19:07 10° SSE visible
18 Sep ? 03:16:59 15° SE 03:16:59 15° SE 03:18:05 10° SE visible
18 Sep ? 04:58:59 11° SW 05:02:20 16° SSW 05:05:56 10° SSE visible
19 Sep ? 03:04:56 10° SE 03:04:56 10° SE 03:04:59 10° SE visible
19 Sep ? 04:46:55 12° SW 04:49:29 15° SSW 04:52:44 10° SSE visible
19 Sep ? 19:28:04 10° N 19:28:34 10° N 19:29:04 10° N visible
20 Sep ? 04:34:50 12° SSW 04:36:38 14° S 04:39:30 10° SSE visible
20 Sep ? 19:14:33 10° N 19:15:46 11° N 19:16:59 10° NNE visible
21 Sep ? 04:22:42 12° SSW 04:23:47 13° S 04:26:17 10° SSE visible
21 Sep ? 19:01:13 10° N 19:02:57 11° N 19:04:42 10° NNE visible
22 Sep ? 04:10:34 12° SSW 04:10:58 12° S 04:13:03 10° SSE visible
22 Sep ? 18:47:56 10° NNW 18:50:08 12° N 18:52:19 10° NNE visible
22 Sep ? 20:35:23 10° NW 20:35:27 10° NW 20:35:27 10° NW visible
23 Sep ? 03:58:24 11° S 03:58:24 11° S 03:59:46 10° S visible
23 Sep ? 18:34:41 10° NNW 18:37:18 13° N 18:39:55 10° NE visible
23 Sep ? 20:22:15 10° NW 20:23:21 14° NNW 20:23:21 14° NNW visible
24 Sep ? 03:46:14 10° S 03:46:14 10° S 03:46:27 10° S visible
24 Sep ? 18:21:27 10° NNW 18:24:28 14° N 18:27:27 10° NE visible
24 Sep ? 20:09:06 10° NW 20:11:16 20° NNW 20:11:16 20° NNW visible
25 Sep ? 05:21:07 10° S 05:22:54 11° S 05:24:42 10° SSE visible
25 Sep ? 19:56:00 10° NW 19:59:15 26° NNW 19:59:15 26° NNW visible
